TimeIST,TemperatureF,Dew PointF,Humidity,Sea Level PressureIn,VisibilityMPH,Wind Direction,Wind SpeedMPH,Gust SpeedMPH,PrecipitationIn,Events,Conditions,WindDirDegrees,DateUTC
12:10 AM,80.6,73.4,79,29.89,1.0,NW,3.5,-,N/A,,Haze,320,2013-12-02 18:40:00
1:40 AM,80.6,71.6,74,29.86,1.4,NNE,4.6,-,N/A,,Haze,30,2013-12-02 20:10:00
2:10 AM,80.6,71.6,74,29.86,1.4,Calm,Calm,-,N/A,,Haze,0,2013-12-02 20:40:00
2:30 AM,78,71,74,29.87,1,Calm,Calm,,,,Haze,,2013-12-02 21:00:00
2:40 AM,80.6,69.8,70,29.86,1.6,ENE,4.6,-,N/A,,Haze,60,2013-12-02 21:10:00
3:10 AM,80.6,69.8,70,29.86,1.6,NNE,3.5,-,N/A,,Haze,20,2013-12-02 21:40:00
3:40 AM,80.6,69.8,70,29.86,1.4,Calm,Calm,-,N/A,,Haze,0,2013-12-02 22:10:00
4:10 AM,78.8,71.6,78,29.86,1.3,East,3.5,-,N/A,,Haze,90,2013-12-02 22:40:00
4:40 AM,78.8,69.8,74,29.83,1.6,SSE,3.5,-,N/A,,Haze,150,2013-12-02 23:10:00
5:10 AM,78.8,69.8,74,29.83,1.6,NE,3.5,-,N/A,,Haze,50,2013-12-02 23:40:00
5:30 AM,76,71,80,29.86,1,Calm,Calm,,,,Haze,,2013-12-03 00:00:00
5:40 AM,78.8,69.8,74,29.86,1.4,NNE,3.5,-,N/A,,Haze,30,2013-12-03 00:10:00
6:10 AM,78.8,69.8,74,29.86,1.4,NNE,3.5,-,N/A,,Haze,30,2013-12-03 00:40:00
6:40 AM,78.8,69.8,74,29.86,1.4,NE,3.5,-,N/A,,Haze,40,2013-12-03 01:10:00
7:40 AM,78.8,69.8,74,29.89,1.0,NNE,3.5,-,N/A,,Partly Cloudy,30,2013-12-03 02:10:00
8:10 AM,78.8,69.8,74,29.89,1.4,NE,5.8,-,N/A,,Haze,50,2013-12-03 02:40:00
8:30 AM,77,70,74,29.90,1,Calm,Calm,,,,Haze,,2013-12-03 03:00:00
8:40 AM,80.6,68.0,65,29.89,1.2,ENE,5.8,-,N/A,,Haze,60,2013-12-03 03:10:00
9:10 AM,82.4,69.8,66,29.92,1.4,NNE,5.8,-,N/A,,Haze,30,2013-12-03 03:40:00
10:10 AM,86.0,71.6,62,29.92,1.6,NNE,4.6,-,N/A,,Haze,30,2013-12-03 04:40:00
10:40 AM,86.0,71.6,62,29.92,1.6,ENE,5.8,-,N/A,,Haze,70,2013-12-03 05:10:00
11:10 AM,87.8,73.4,62,29.92,1.6,NE,4.6,-,N/A,,Haze,40,2013-12-03 05:40:00
11:30 AM,87,73,54,29.90,1,Calm,Calm,,,,Smoke,,2013-12-03 06:00:00
11:40 AM,89.6,71.6,55,29.89,1.6,East,3.5,-,N/A,,Smoke,80,2013-12-03 06:10:00
12:10 PM,91.4,71.6,52,29.89,1.6,East,4.6,-,N/A,,Smoke,80,2013-12-03 06:40:00
1:10 PM,91.4,68.0,46,29.86,1.9,ENE,6.9,-,N/A,,Smoke,70,2013-12-03 07:40:00
1:40 PM,93.2,68.0,44,29.83,1.9,East,4.6,-,N/A,,Smoke,100,2013-12-03 08:10:00
2:10 PM,91.4,73.4,55,29.80,1.9,WNW,10.4,-,N/A,,Smoke,290,2013-12-03 08:40:00
2:30 PM,90,72,46,29.84,1,West,3.5,,,,Smoke,270,2013-12-03 09:00:00
2:40 PM,91.4,71.6,52,29.80,1.9,NW,9.2,-,N/A,,Smoke,320,2013-12-03 09:10:00
3:10 PM,89.6,73.4,59,29.80,1.9,NW,10.4,-,N/A,,Smoke,310,2013-12-03 09:40:00
3:40 PM,89.6,71.6,55,29.80,1.9,NW,11.5,-,N/A,,Smoke,320,2013-12-03 10:10:00
4:10 PM,87.8,69.8,55,29.80,1.9,NW,12.7,-,N/A,,Smoke,320,2013-12-03 10:40:00
4:40 PM,87.8,69.8,55,29.80,1.9,NW,11.5,-,N/A,,Smoke,320,2013-12-03 11:10:00
5:10 PM,87.8,66.2,49,29.80,1.9,NNW,12.7,-,N/A,,Smoke,330,2013-12-03 11:40:00
5:30 PM,86,65,39,29.80,1,North,6.9,,,,Smoke,0,2013-12-03 12:00:00
5:40 PM,87.8,64.4,46,29.80,1.9,NNW,11.5,-,N/A,,Smoke,330,2013-12-03 12:10:00
6:10 PM,87.8,62.6,43,29.80,1.9,NNW,10.4,-,N/A,,Smoke,330,2013-12-03 12:40:00
6:40 PM,86.0,59.0,40,29.83,1.9,NNW,10.4,-,N/A,,Smoke,340,2013-12-03 13:10:00
7:10 PM,84.2,59.0,42,29.83,1.9,NNW,10.4,-,N/A,,Smoke,340,2013-12-03 13:40:00
7:40 PM,84.2,55.4,37,29.86,1.9,North,8.1,-,N/A,,Smoke,360,2013-12-03 14:10:00
8:10 PM,84.2,57.2,40,29.86,1.9,North,9.2,-,N/A,,Smoke,10,2013-12-03 14:40:00
8:30 PM,83,54,27,29.86,1,North,4.6,,,,Smoke,0,2013-12-03 15:00:00
8:40 PM,84.2,55.4,37,29.86,1.9,North,9.2,-,N/A,,Smoke,360,2013-12-03 15:10:00
9:10 PM,84.2,53.6,35,29.89,1.9,North,8.1,-,N/A,,Smoke,10,2013-12-03 15:40:00
9:40 PM,82.4,55.4,39,29.89,1.9,NE,4.6,-,N/A,,Smoke,40,2013-12-03 16:10:00
10:10 PM,82.4,55.4,39,29.89,1.9,NE,9.2,-,N/A,,Smoke,50,2013-12-03 16:40:00
10:40 PM,82.4,55.4,39,29.89,1.9,NNE,5.8,-,N/A,,Smoke,20,2013-12-03 17:10:00
11:10 PM,80.6,55.4,42,29.89,1.9,North,4.6,-,N/A,,Smoke,10,2013-12-03 17:40:00
11:30 PM,78,61,46,29.89,1,Calm,Calm,,,,Smoke,,2013-12-03 18:00:00
11:40 PM,80.6,57.2,45,29.89,1.9,NNE,4.6,-,N/A,,Smoke,20,2013-12-03 18:10:00